Year,Month,Day,Hour,Minute,Value (Times are PST for temperature in C)
2013,07,15,00,00,15.20
2013,07,15,00,01,15.20
2013,07,15,00,02,15.20
2013,07,15,00,03,15.20
2013,07,15,00,04,15.10
2013,07,15,00,05,15.10
2013,07,15,00,06,15.10
2013,07,15,00,07,15.10
2013,07,15,00,08,15.10
2013,07,15,00,09,15.00
2013,07,15,00,10,15.00
2013,07,15,00,11,15.00
2013,07,15,00,12,15.00
2013,07,15,00,13,14.90
2013,07,15,00,14,14.90
2013,07,15,00,15,14.90
2013,07,15,00,16,15.00
2013,07,15,00,17,15.00
2013,07,15,00,18,14.90
2013,07,15,00,19,14.90
2013,07,15,00,20,14.90
2013,07,15,00,21,14.90
2013,07,15,00,22,14.90
2013,07,15,00,23,14.90
2013,07,15,00,24,14.90
2013,07,15,00,25,14.90
2013,07,15,00,26,14.90
2013,07,15,00,27,14.80
2013,07,15,00,28,14.80
2013,07,15,00,29,14.80
2013,07,15,00,30,14.80
2013,07,15,00,31,14.80
2013,07,15,00,32,14.80
2013,07,15,00,33,14.80
2013,07,15,00,34,14.70
2013,07,15,00,35,14.70
2013,07,15,00,36,14.70
2013,07,15,00,37,14.70
2013,07,15,00,38,14.60
2013,07,15,00,39,14.60
2013,07,15,00,40,14.50
2013,07,15,00,41,14.50
2013,07,15,00,42,14.50
2013,07,15,00,43,14.50
2013,07,15,00,44,14.50
2013,07,15,00,45,14.50
2013,07,15,00,46,14.50
2013,07,15,00,47,14.50
2013,07,15,00,48,14.50
2013,07,15,00,49,14.50
2013,07,15,00,50,14.50
2013,07,15,00,51,14.50
2013,07,15,00,52,14.50
2013,07,15,00,53,14.50
2013,07,15,00,54,14.40
2013,07,15,00,55,14.40
2013,07,15,00,56,14.40
2013,07,15,00,57,14.30
2013,07,15,00,58,14.30
2013,07,15,00,59,14.30
2013,07,15,01,00,14.30
2013,07,15,01,01,14.30
2013,07,15,01,02,14.30
2013,07,15,01,03,14.30
2013,07,15,01,04,14.30
2013,07,15,01,05,14.30
2013,07,15,01,06,14.30
2013,07,15,01,07,14.30
2013,07,15,01,08,14.30
2013,07,15,01,09,14.30
2013,07,15,01,10,14.30
2013,07,15,01,11,14.20
2013,07,15,01,12,14.20
2013,07,15,01,13,14.20
2013,07,15,01,14,14.20
2013,07,15,01,15,14.20
2013,07,15,01,16,14.20
2013,07,15,01,17,14.20
2013,07,15,01,18,14.20
2013,07,15,01,19,14.20
2013,07,15,01,20,14.20
2013,07,15,01,21,14.10
2013,07,15,01,22,14.10
2013,07,15,01,23,14.10
2013,07,15,01,24,14.10
2013,07,15,01,25,14.10
2013,07,15,01,26,14.10
2013,07,15,01,27,14.10
2013,07,15,01,28,14.10
2013,07,15,01,29,14.10
2013,07,15,01,30,14.10
2013,07,15,01,31,14.10
2013,07,15,01,32,14.10
2013,07,15,01,33,14.10
2013,07,15,01,34,14.10
2013,07,15,01,35,14.00
2013,07,15,01,36,14.00
2013,07,15,01,37,14.00
2013,07,15,01,38,14.00
2013,07,15,01,39,14.00
2013,07,15,01,40,13.90
2013,07,15,01,41,13.90
2013,07,15,01,42,13.90
2013,07,15,01,43,13.80
2013,07,15,01,44,13.80
2013,07,15,01,45,13.80
2013,07,15,01,46,13.80
2013,07,15,01,47,13.80
2013,07,15,01,48,13.80
2013,07,15,01,49,13.80
2013,07,15,01,50,13.80
2013,07,15,01,51,13.80
2013,07,15,01,52,13.70
2013,07,15,01,53,13.70
2013,07,15,01,54,13.70
2013,07,15,01,55,13.70
2013,07,15,01,56,13.70
2013,07,15,01,57,13.70
2013,07,15,01,58,13.70
2013,07,15,01,59,13.70
2013,07,15,02,00,13.70
2013,07,15,02,01,13.70
2013,07,15,02,02,13.60
2013,07,15,02,03,13.60
2013,07,15,02,04,13.60
2013,07,15,02,05,13.60
2013,07,15,02,06,13.60
2013,07,15,02,07,13.60
2013,07,15,02,08,13.50
2013,07,15,02,09,13.50
2013,07,15,02,10,13.40
2013,07,15,02,11,13.40
2013,07,15,02,12,13.40
2013,07,15,02,13,13.40
2013,07,15,02,14,13.40
2013,07,15,02,15,13.40
2013,07,15,02,16,13.40
2013,07,15,02,17,13.30
2013,07,15,02,18,13.30
2013,07,15,02,19,13.30
2013,07,15,02,20,13.30
2013,07,15,02,21,13.30
2013,07,15,02,22,13.30
2013,07,15,02,23,13.40
2013,07,15,02,24,13.40
2013,07,15,02,25,13.40
2013,07,15,02,26,13.40
2013,07,15,02,27,13.40
2013,07,15,02,28,13.30
2013,07,15,02,29,13.30
2013,07,15,02,30,13.30
2013,07,15,02,31,13.20
2013,07,15,02,32,13.20
2013,07,15,02,33,13.20
2013,07,15,02,34,13.10
2013,07,15,02,35,13.10
2013,07,15,02,36,13.10
2013,07,15,02,37,13.00
2013,07,15,02,38,13.00
2013,07,15,02,39,12.90
2013,07,15,02,40,12.90
2013,07,15,02,41,12.80
2013,07,15,02,42,12.80
2013,07,15,02,43,12.80
2013,07,15,02,44,12.80
2013,07,15,02,45,12.80
2013,07,15,02,46,12.70
2013,07,15,02,47,12.70
2013,07,15,02,48,12.70
2013,07,15,02,49,12.70
2013,07,15,02,50,12.80
2013,07,15,02,51,12.80
2013,07,15,02,52,12.80
2013,07,15,02,53,12.80
2013,07,15,02,54,12.80
2013,07,15,02,55,12.80
2013,07,15,02,56,12.80
2013,07,15,02,57,12.80
2013,07,15,02,58,12.90
2013,07,15,02,59,12.90
2013,07,15,03,00,12.90
2013,07,15,03,01,12.80
2013,07,15,03,02,12.80
2013,07,15,03,03,12.80
2013,07,15,03,04,12.80
2013,07,15,03,05,12.80
2013,07,15,03,06,12.80
2013,07,15,03,07,12.80
2013,07,15,03,08,12.80
2013,07,15,03,09,12.80
2013,07,15,03,10,12.80
2013,07,15,03,11,12.80
2013,07,15,03,12,12.80
2013,07,15,03,13,12.80
2013,07,15,03,14,12.80
2013,07,15,03,15,12.80
2013,07,15,03,16,12.80
2013,07,15,03,17,12.80
2013,07,15,03,18,12.80
2013,07,15,03,19,12.80
2013,07,15,03,20,12.80
2013,07,15,03,21,12.80
2013,07,15,03,22,12.80
2013,07,15,03,23,12.80
2013,07,15,03,24,12.80
2013,07,15,03,25,12.80
2013,07,15,03,26,12.80
2013,07,15,03,27,12.70
2013,07,15,03,28,12.70
2013,07,15,03,29,12.70
2013,07,15,03,30,12.70
2013,07,15,03,31,12.70
2013,07,15,03,32,12.70
2013,07,15,03,33,12.60
2013,07,15,03,34,12.60
2013,07,15,03,35,12.60
2013,07,15,03,36,12.60
2013,07,15,03,37,12.60
2013,07,15,03,38,12.50
2013,07,15,03,39,12.50
2013,07,15,03,40,12.50
2013,07,15,03,41,12.40
2013,07,15,03,42,12.40
2013,07,15,03,43,12.40
2013,07,15,03,44,12.40
2013,07,15,03,45,12.40
2013,07,15,03,46,12.40
2013,07,15,03,47,12.40
2013,07,15,03,48,12.40
2013,07,15,03,49,12.40
2013,07,15,03,50,12.40
2013,07,15,03,51,12.40
2013,07,15,03,52,12.40
2013,07,15,03,53,12.30
2013,07,15,03,54,12.30
2013,07,15,03,55,12.30
2013,07,15,03,56,12.30
2013,07,15,03,57,12.30
2013,07,15,03,58,12.30
2013,07,15,03,59,12.30
2013,07,15,04,00,12.30
2013,07,15,04,01,12.20
2013,07,15,04,02,12.20
2013,07,15,04,03,12.20
2013,07,15,04,04,12.20
2013,07,15,04,05,12.20
2013,07,15,04,06,12.20
2013,07,15,04,07,12.10
2013,07,15,04,08,12.10
2013,07,15,04,09,12.10
2013,07,15,04,10,12.10
2013,07,15,04,11,12.10
2013,07,15,04,12,12.10
2013,07,15,04,13,12.00
2013,07,15,04,14,12.00
2013,07,15,04,15,12.00
2013,07,15,04,16,11.90
2013,07,15,04,17,11.90
2013,07,15,04,18,11.90
2013,07,15,04,19,11.90
2013,07,15,04,20,11.90
2013,07,15,04,21,11.90
2013,07,15,04,22,11.80
2013,07,15,04,23,11.80
2013,07,15,04,24,11.80
2013,07,15,04,25,11.80
2013,07,15,04,26,11.80
2013,07,15,04,27,11.80
2013,07,15,04,28,11.80
2013,07,15,04,29,11.80
2013,07,15,04,30,11.80
2013,07,15,04,31,11.80
2013,07,15,04,32,11.80
2013,07,15,04,33,11.80
2013,07,15,04,34,11.80
2013,07,15,04,35,11.80
2013,07,15,04,36,11.80
2013,07,15,04,37,11.80
2013,07,15,04,38,11.80
2013,07,15,04,39,11.80
2013,07,15,04,40,11.80
2013,07,15,04,41,11.80
2013,07,15,04,42,11.80
2013,07,15,04,43,11.80
2013,07,15,04,44,11.80
2013,07,15,04,45,11.70
2013,07,15,04,46,11.70
2013,07,15,04,47,11.70
2013,07,15,04,48,11.70
2013,07,15,04,49,11.70
2013,07,15,04,50,11.60
2013,07,15,04,51,11.60
2013,07,15,04,52,11.60
2013,07,15,04,53,11.60
2013,07,15,04,54,11.60
2013,07,15,04,55,11.60
2013,07,15,04,56,11.70
2013,07,15,04,57,11.70
2013,07,15,04,58,11.80
2013,07,15,04,59,11.80
2013,07,15,05,00,11.80
2013,07,15,05,01,11.80
2013,07,15,05,02,11.70
2013,07,15,05,03,11.70
2013,07,15,05,04,11.70
2013,07,15,05,05,11.60
2013,07,15,05,06,11.60
2013,07,15,05,07,11.60
2013,07,15,05,08,11.60
2013,07,15,05,09,11.60
2013,07,15,05,10,11.60
2013,07,15,05,11,11.60
2013,07,15,05,12,11.60
2013,07,15,05,13,11.60
2013,07,15,05,14,11.60
2013,07,15,05,15,11.50
2013,07,15,05,16,11.50
2013,07,15,05,17,11.50
2013,07,15,05,18,11.40
2013,07,15,05,19,11.40
2013,07,15,05,20,11.30
2013,07,15,05,21,11.30
2013,07,15,05,22,11.20
2013,07,15,05,23,11.20
2013,07,15,05,24,11.20
2013,07,15,05,25,11.20
2013,07,15,05,26,11.20
2013,07,15,05,27,11.20
2013,07,15,05,28,11.20
2013,07,15,05,29,11.20
2013,07,15,05,30,11.20
2013,07,15,05,31,11.20
2013,07,15,05,32,11.20
2013,07,15,05,33,11.20
2013,07,15,05,34,11.20
2013,07,15,05,35,11.20
2013,07,15,05,36,11.20
2013,07,15,05,37,11.20
2013,07,15,05,38,11.30
2013,07,15,05,39,11.30
2013,07,15,05,40,11.30
2013,07,15,05,41,11.30
2013,07,15,05,42,11.30
2013,07,15,05,43,11.30
2013,07,15,05,44,11.30
2013,07,15,05,45,11.40
2013,07,15,05,46,11.40
2013,07,15,05,47,11.40
2013,07,15,05,48,11.40
2013,07,15,05,49,11.40
2013,07,15,05,50,11.40
2013,07,15,05,51,11.40
2013,07,15,05,52,11.50
2013,07,15,05,53,11.50
2013,07,15,05,54,11.50
2013,07,15,05,55,11.60
2013,07,15,05,56,11.60
2013,07,15,05,57,11.60
2013,07,15,05,58,11.60
2013,07,15,05,59,11.70
2013,07,15,06,00,11.70
2013,07,15,06,01,11.70
2013,07,15,06,02,11.70
2013,07,15,06,03,11.70
2013,07,15,06,04,11.70
2013,07,15,06,05,11.80
2013,07,15,06,06,11.80
2013,07,15,06,07,11.80
2013,07,15,06,08,11.80
2013,07,15,06,09,11.80
2013,07,15,06,10,11.80
2013,07,15,06,11,11.80
2013,07,15,06,12,11.80
2013,07,15,06,13,11.80
2013,07,15,06,14,11.80
2013,07,15,06,15,11.90
2013,07,15,06,16,11.90
2013,07,15,06,17,11.90
2013,07,15,06,18,12.00
2013,07,15,06,19,12.00
2013,07,15,06,20,12.10
2013,07,15,06,21,12.10
2013,07,15,06,22,12.10
2013,07,15,06,23,12.10
2013,07,15,06,24,12.10
2013,07,15,06,25,12.10
2013,07,15,06,26,12.10
2013,07,15,06,27,12.20
2013,07,15,06,28,12.20
2013,07,15,06,29,12.20
2013,07,15,06,30,12.20
2013,07,15,06,31,12.20
2013,07,15,06,32,12.20
2013,07,15,06,33,12.30
2013,07,15,06,34,12.30
2013,07,15,06,35,12.30
2013,07,15,06,36,12.30
2013,07,15,06,37,12.30
2013,07,15,06,38,12.40
2013,07,15,06,39,12.40
2013,07,15,06,40,12.40
2013,07,15,06,41,12.50
2013,07,15,06,42,12.50
2013,07,15,06,43,12.60
2013,07,15,06,44,12.60
2013,07,15,06,45,12.70
2013,07,15,06,46,12.70
2013,07,15,06,47,12.70
2013,07,15,06,48,12.80
2013,07,15,06,49,12.80
2013,07,15,06,50,12.90
2013,07,15,06,51,12.90
2013,07,15,06,52,13.00
2013,07,15,06,53,13.10
2013,07,15,06,54,13.10
2013,07,15,06,55,13.20
2013,07,15,06,56,13.30
2013,07,15,06,57,13.30
2013,07,15,06,58,13.40
2013,07,15,06,59,13.50
2013,07,15,07,00,13.50
2013,07,15,07,01,13.60
2013,07,15,07,02,13.60
2013,07,15,07,03,13.70
2013,07,15,07,04,13.80
2013,07,15,07,05,13.80
2013,07,15,07,06,13.80
2013,07,15,07,07,13.90
2013,07,15,07,08,13.90
2013,07,15,07,09,14.00
2013,07,15,07,10,14.10
2013,07,15,07,11,14.10
2013,07,15,07,12,14.10
2013,07,15,07,13,14.20
2013,07,15,07,14,14.20
2013,07,15,07,15,14.30
2013,07,15,07,16,14.30
2013,07,15,07,17,14.30
2013,07,15,07,18,14.40
2013,07,15,07,19,14.40
2013,07,15,07,20,14.50
2013,07,15,07,21,14.50
2013,07,15,07,22,14.60
2013,07,15,07,23,14.70
2013,07,15,07,24,14.80
2013,07,15,07,25,14.80
2013,07,15,07,26,14.90
2013,07,15,07,27,15.00
2013,07,15,07,28,15.00
2013,07,15,07,29,15.10
2013,07,15,07,30,15.10
2013,07,15,07,31,15.20
2013,07,15,07,32,15.20
2013,07,15,07,33,15.30
2013,07,15,07,34,15.30
2013,07,15,07,35,15.30
2013,07,15,07,36,15.30
2013,07,15,07,37,15.40
2013,07,15,07,38,15.40
2013,07,15,07,39,15.40
2013,07,15,07,40,15.40
2013,07,15,07,41,15.50
2013,07,15,07,42,15.50
2013,07,15,07,43,15.50
2013,07,15,07,44,15.60
2013,07,15,07,45,15.60
2013,07,15,07,46,15.60
2013,07,15,07,47,15.70
2013,07,15,07,48,15.70
2013,07,15,07,49,15.70
2013,07,15,07,50,15.80
2013,07,15,07,51,15.80
2013,07,15,07,52,15.80
2013,07,15,07,53,15.90
2013,07,15,07,54,15.90
2013,07,15,07,55,15.90
2013,07,15,07,56,16.00
2013,07,15,07,57,16.00
2013,07,15,07,58,16.10
2013,07,15,07,59,16.10
2013,07,15,08,00,16.20
2013,07,15,08,01,16.20
2013,07,15,08,02,16.30
2013,07,15,08,03,16.30
2013,07,15,08,04,16.40
2013,07,15,08,05,16.40
2013,07,15,08,06,16.40
2013,07,15,08,07,16.50
2013,07,15,08,08,16.50
2013,07,15,08,09,16.50
2013,07,15,08,10,16.60
2013,07,15,08,11,16.60
2013,07,15,08,12,16.70
2013,07,15,08,13,16.70
2013,07,15,08,14,16.80
2013,07,15,08,15,16.80
2013,07,15,08,16,16.90
2013,07,15,08,17,17.00
2013,07,15,08,18,17.10
2013,07,15,08,19,17.10
2013,07,15,08,20,17.20
2013,07,15,08,21,17.20
2013,07,15,08,22,17.20
2013,07,15,08,23,17.30
2013,07,15,08,24,17.30
2013,07,15,08,25,17.40
2013,07,15,08,26,17.40
2013,07,15,08,27,17.50
2013,07,15,08,28,17.60
2013,07,15,08,29,17.60
2013,07,15,08,30,17.70
2013,07,15,08,31,17.70
2013,07,15,08,32,17.80
2013,07,15,08,33,17.80
2013,07,15,08,34,17.90
2013,07,15,08,35,18.00
2013,07,15,08,36,18.10
2013,07,15,08,37,18.20
2013,07,15,08,38,18.30
2013,07,15,08,39,18.30
2013,07,15,08,40,18.40
2013,07,15,08,41,18.50
2013,07,15,08,42,18.60
2013,07,15,08,43,18.70
2013,07,15,08,44,18.70
2013,07,15,08,45,18.70
2013,07,15,08,46,18.70
2013,07,15,08,47,18.70
2013,07,15,08,48,18.70
2013,07,15,08,49,18.70
2013,07,15,08,50,18.80
2013,07,15,08,51,18.80
2013,07,15,08,52,18.80
2013,07,15,08,53,18.80
2013,07,15,08,54,18.70
2013,07,15,08,55,18.70
2013,07,15,08,56,18.60
2013,07,15,08,57,18.60
2013,07,15,08,58,18.60
2013,07,15,08,59,18.60
2013,07,15,09,00,18.60
2013,07,15,09,01,18.50
2013,07,15,09,02,18.50
2013,07,15,09,03,18.40
2013,07,15,09,04,18.50
2013,07,15,09,05,18.50
2013,07,15,09,06,18.60
2013,07,15,09,07,18.60
2013,07,15,09,08,18.60
2013,07,15,09,09,18.60
2013,07,15,09,10,18.60
2013,07,15,09,11,18.60
2013,07,15,09,12,18.60
2013,07,15,09,13,18.60
2013,07,15,09,14,18.60
2013,07,15,09,15,18.70
2013,07,15,09,16,18.70
2013,07,15,09,17,18.70
2013,07,15,09,18,18.90
2013,07,15,09,19,19.00
2013,07,15,09,20,19.10
2013,07,15,09,21,19.20
2013,07,15,09,22,19.40
2013,07,15,09,23,19.50
2013,07,15,09,24,19.60
2013,07,15,09,25,19.60
2013,07,15,09,26,19.60
2013,07,15,09,27,19.60
2013,07,15,09,28,19.60
2013,07,15,09,29,19.70
2013,07,15,09,30,19.80
2013,07,15,09,31,20.00
2013,07,15,09,32,20.20
2013,07,15,09,33,20.20
2013,07,15,09,34,20.20
2013,07,15,09,35,20.20
2013,07,15,09,36,20.10
2013,07,15,09,37,20.10
2013,07,15,09,38,20.10
2013,07,15,09,39,20.10
2013,07,15,09,40,20.20
2013,07,15,09,41,20.30
2013,07,15,09,42,20.40
2013,07,15,09,43,20.50
2013,07,15,09,44,20.60
2013,07,15,09,45,20.70
2013,07,15,09,46,20.80
2013,07,15,09,47,20.80
2013,07,15,09,48,20.90
2013,07,15,09,49,20.90
2013,07,15,09,50,20.90
2013,07,15,09,51,20.90
2013,07,15,09,52,21.00
2013,07,15,09,53,21.10
2013,07,15,09,54,21.20
2013,07,15,09,55,21.30
2013,07,15,09,56,21.30
2013,07,15,09,57,21.30
2013,07,15,09,58,21.40
2013,07,15,09,59,21.50
2013,07,15,10,00,21.60
2013,07,15,10,01,21.60
2013,07,15,10,02,21.70
2013,07,15,10,03,21.60
2013,07,15,10,04,21.50
2013,07,15,10,05,21.40
2013,07,15,10,06,21.20
2013,07,15,10,07,20.90
2013,07,15,10,08,20.80
2013,07,15,10,09,20.70
2013,07,15,10,10,20.70
2013,07,15,10,11,20.70
2013,07,15,10,12,20.80
2013,07,15,10,13,20.80
2013,07,15,10,14,20.80
2013,07,15,10,15,20.80
2013,07,15,10,16,20.80
2013,07,15,10,17,20.70
2013,07,15,10,18,20.70
2013,07,15,10,19,20.60
2013,07,15,10,20,20.60
2013,07,15,10,21,20.60
2013,07,15,10,22,20.60
2013,07,15,10,23,20.60
2013,07,15,10,24,20.60
2013,07,15,10,25,20.60
2013,07,15,10,26,20.60
2013,07,15,10,27,20.70
2013,07,15,10,28,20.70
2013,07,15,10,29,20.70
2013,07,15,10,30,20.80
2013,07,15,10,31,20.80
2013,07,15,10,32,20.90
2013,07,15,10,33,20.90
2013,07,15,10,34,20.90
2013,07,15,10,35,20.80
2013,07,15,10,36,20.80
2013,07,15,10,37,20.80
2013,07,15,10,38,20.80
2013,07,15,10,39,20.80
2013,07,15,10,40,20.80
2013,07,15,10,41,20.80
2013,07,15,10,42,20.80
2013,07,15,10,43,20.90
2013,07,15,10,44,20.90
2013,07,15,10,45,21.00
2013,07,15,10,46,21.00
2013,07,15,10,47,21.00
2013,07,15,10,48,21.10
2013,07,15,10,49,21.10
2013,07,15,10,50,21.20
2013,07,15,10,51,21.10
2013,07,15,10,52,21.10
2013,07,15,10,53,21.00
2013,07,15,10,54,20.90
2013,07,15,10,55,20.90
2013,07,15,10,56,20.90
2013,07,15,10,57,21.00
2013,07,15,10,58,21.10
2013,07,15,10,59,21.20
2013,07,15,11,00,21.10
2013,07,15,11,01,21.10
2013,07,15,11,02,21.10
2013,07,15,11,03,21.00
2013,07,15,11,04,21.10
2013,07,15,11,05,21.30
2013,07,15,11,06,21.40
2013,07,15,11,07,21.60
2013,07,15,11,08,21.80
2013,07,15,11,09,22.10
2013,07,15,11,10,22.20
2013,07,15,11,11,22.40
2013,07,15,11,12,22.60
2013,07,15,11,13,22.70
2013,07,15,11,14,22.80
2013,07,15,11,15,23.00
2013,07,15,11,16,23.10
2013,07,15,11,17,23.10
2013,07,15,11,18,23.20
2013,07,15,11,19,23.20
2013,07,15,11,20,23.30
2013,07,15,11,21,23.40
2013,07,15,11,22,23.40
2013,07,15,11,23,23.40
2013,07,15,11,24,23.50
2013,07,15,11,25,23.50
2013,07,15,11,26,23.60
2013,07,15,11,27,23.60
2013,07,15,11,28,23.60
2013,07,15,11,29,23.60
2013,07,15,11,30,23.60
2013,07,15,11,31,23.50
2013,07,15,11,32,23.50
2013,07,15,11,33,23.60
2013,07,15,11,34,23.70
2013,07,15,11,35,23.70
2013,07,15,11,36,23.70
2013,07,15,11,37,23.60
2013,07,15,11,38,23.40
2013,07,15,11,39,23.40
2013,07,15,11,40,23.40
2013,07,15,11,41,23.40
2013,07,15,11,42,23.50
2013,07,15,11,43,23.60
2013,07,15,11,44,23.70
2013,07,15,11,45,23.70
2013,07,15,11,46,23.70
2013,07,15,11,47,23.70
2013,07,15,11,48,23.70
2013,07,15,11,49,23.80
2013,07,15,11,50,23.80
2013,07,15,11,51,23.90
2013,07,15,11,52,23.90
2013,07,15,11,53,23.90
2013,07,15,11,54,23.90
2013,07,15,11,55,23.80
2013,07,15,11,56,23.70
2013,07,15,11,57,23.70
2013,07,15,11,58,23.80
2013,07,15,11,59,23.80
2013,07,15,12,00,23.90
2013,07,15,12,01,24.00
2013,07,15,12,02,24.10
2013,07,15,12,03,24.20
2013,07,15,12,04,24.20
2013,07,15,12,05,24.20
2013,07,15,12,06,24.20
2013,07,15,12,07,24.30
2013,07,15,12,08,24.50
2013,07,15,12,09,24.50
2013,07,15,12,10,24.50
2013,07,15,12,11,24.50
2013,07,15,12,12,24.40
2013,07,15,12,13,24.40
2013,07,15,12,14,24.50
2013,07,15,12,15,24.60
2013,07,15,12,16,24.60
2013,07,15,12,17,24.60
2013,07,15,12,18,24.60
2013,07,15,12,19,24.70
2013,07,15,12,20,24.70
2013,07,15,12,21,24.70
2013,07,15,12,22,24.70
2013,07,15,12,23,24.80
2013,07,15,12,24,24.80
2013,07,15,12,25,24.80
2013,07,15,12,26,24.80
2013,07,15,12,27,24.90
2013,07,15,12,28,25.00
2013,07,15,12,29,25.10
2013,07,15,12,30,25.10
2013,07,15,12,31,25.20
2013,07,15,12,32,25.20
2013,07,15,12,33,25.20
2013,07,15,12,34,25.20
2013,07,15,12,35,25.20
2013,07,15,12,36,25.10
2013,07,15,12,37,25.10
2013,07,15,12,38,25.10
2013,07,15,12,39,25.10
2013,07,15,12,40,25.10
2013,07,15,12,41,25.10
2013,07,15,12,42,25.10
2013,07,15,12,43,25.00
2013,07,15,12,44,24.80
2013,07,15,12,45,24.60
2013,07,15,12,46,24.50
2013,07,15,12,47,24.40
2013,07,15,12,48,24.40
2013,07,15,12,49,24.40
2013,07,15,12,50,24.40
2013,07,15,12,51,24.40
2013,07,15,12,52,24.40
2013,07,15,12,53,24.30
2013,07,15,12,54,24.30
2013,07,15,12,55,24.30
2013,07,15,12,56,24.30
2013,07,15,12,57,24.30
2013,07,15,12,58,24.20
2013,07,15,12,59,24.30
2013,07,15,13,00,24.30
2013,07,15,13,01,24.40
2013,07,15,13,02,24.40
2013,07,15,13,03,24.50
2013,07,15,13,04,24.60
2013,07,15,13,05,24.80
2013,07,15,13,06,24.90
2013,07,15,13,07,24.90
2013,07,15,13,08,24.90
2013,07,15,13,09,24.80
2013,07,15,13,10,24.70
2013,07,15,13,11,24.60
2013,07,15,13,12,24.70
2013,07,15,13,13,24.70
2013,07,15,13,14,24.80
2013,07,15,13,15,24.80
2013,07,15,13,16,24.90
2013,07,15,13,17,24.90
2013,07,15,13,18,25.00
2013,07,15,13,19,25.10
2013,07,15,13,20,25.10
2013,07,15,13,21,25.20
2013,07,15,13,22,25.40
2013,07,15,13,23,25.50
2013,07,15,13,24,25.70
2013,07,15,13,25,25.80
2013,07,15,13,26,25.90
2013,07,15,13,27,25.90
2013,07,15,13,28,25.80
2013,07,15,13,29,25.80
2013,07,15,13,30,25.80
2013,07,15,13,31,25.80
2013,07,15,13,32,25.80
2013,07,15,13,33,25.80
2013,07,15,13,34,25.80
2013,07,15,13,35,25.80
2013,07,15,13,36,25.70
2013,07,15,13,37,25.60
2013,07,15,13,38,25.50
2013,07,15,13,39,25.40
2013,07,15,13,40,25.30
2013,07,15,13,41,25.00
2013,07,15,13,42,24.80
2013,07,15,13,43,24.60
2013,07,15,13,44,24.40
2013,07,15,13,45,24.20
2013,07,15,13,46,24.20
2013,07,15,13,47,24.20
2013,07,15,13,48,24.30
2013,07,15,13,49,24.30
2013,07,15,13,50,24.30
2013,07,15,13,51,24.20
2013,07,15,13,52,23.90
2013,07,15,13,53,23.70
2013,07,15,13,54,23.50
2013,07,15,13,55,23.30
2013,07,15,13,56,23.10
2013,07,15,13,57,23.00
2013,07,15,13,58,23.00
2013,07,15,13,59,23.00
2013,07,15,14,00,23.00
2013,07,15,14,01,23.00
2013,07,15,14,02,23.00
2013,07,15,14,03,23.00
2013,07,15,14,04,23.10
2013,07,15,14,05,23.10
2013,07,15,14,06,23.20
2013,07,15,14,07,23.20
2013,07,15,14,08,23.30
2013,07,15,14,09,23.30
2013,07,15,14,10,23.40
2013,07,15,14,11,23.50
2013,07,15,14,12,23.50
2013,07,15,14,13,23.60
2013,07,15,14,14,23.60
2013,07,15,14,15,23.50
2013,07,15,14,16,23.50
2013,07,15,14,17,23.50
2013,07,15,14,18,23.40
2013,07,15,14,19,23.40
2013,07,15,14,20,23.50
2013,07,15,14,21,23.70
2013,07,15,14,22,23.80
2013,07,15,14,23,24.00
2013,07,15,14,24,24.10
2013,07,15,14,25,24.20
2013,07,15,14,26,24.20
2013,07,15,14,27,24.20
2013,07,15,14,28,24.30
2013,07,15,14,29,24.30
2013,07,15,14,30,24.40
2013,07,15,14,31,24.50
2013,07,15,14,32,24.50
2013,07,15,14,33,24.60
2013,07,15,14,34,24.60
2013,07,15,14,35,24.50
2013,07,15,14,36,24.30
2013,07,15,14,37,24.20
2013,07,15,14,38,24.10
2013,07,15,14,39,24.00
2013,07,15,14,40,24.00
2013,07,15,14,41,24.10
2013,07,15,14,42,24.20
2013,07,15,14,43,24.30
2013,07,15,14,44,24.40
2013,07,15,14,45,24.50
2013,07,15,14,46,24.50
2013,07,15,14,47,24.60
2013,07,15,14,48,24.70
2013,07,15,14,49,24.80
2013,07,15,14,50,24.80
2013,07,15,14,51,24.90
2013,07,15,14,52,24.90
2013,07,15,14,53,24.90
2013,07,15,14,54,24.90
2013,07,15,14,55,24.90
2013,07,15,14,56,24.90
2013,07,15,14,57,25.00
2013,07,15,14,58,25.10
2013,07,15,14,59,25.10
2013,07,15,15,00,25.20
2013,07,15,15,01,25.20
2013,07,15,15,02,25.20
2013,07,15,15,03,25.10
2013,07,15,15,04,24.90
2013,07,15,15,05,24.80
2013,07,15,15,06,24.80
2013,07,15,15,07,24.90
2013,07,15,15,08,25.00
2013,07,15,15,09,25.10
2013,07,15,15,10,25.10
2013,07,15,15,11,25.20
2013,07,15,15,12,25.30
2013,07,15,15,13,25.40
2013,07,15,15,14,25.40
2013,07,15,15,15,25.50
2013,07,15,15,16,25.60
2013,07,15,15,17,25.60
2013,07,15,15,18,25.60
2013,07,15,15,19,25.60
2013,07,15,15,20,25.50
2013,07,15,15,21,25.50
2013,07,15,15,22,25.50
2013,07,15,15,23,25.50
2013,07,15,15,24,25.50
2013,07,15,15,25,25.50
2013,07,15,15,26,25.60
2013,07,15,15,27,25.70
2013,07,15,15,28,25.80
2013,07,15,15,29,25.80
2013,07,15,15,30,25.70
2013,07,15,15,31,25.50
2013,07,15,15,32,25.30
2013,07,15,15,33,25.20
2013,07,15,15,34,25.00
2013,07,15,15,35,24.80
2013,07,15,15,36,24.80
2013,07,15,15,37,24.70
2013,07,15,15,38,24.60
2013,07,15,15,39,24.60
2013,07,15,15,40,24.50
2013,07,15,15,41,24.30
2013,07,15,15,42,24.20
2013,07,15,15,43,24.10
2013,07,15,15,44,24.10
2013,07,15,15,45,24.10
2013,07,15,15,46,24.10
2013,07,15,15,47,24.20
2013,07,15,15,48,24.30
2013,07,15,15,49,24.50
2013,07,15,15,50,24.70
2013,07,15,15,51,24.80
2013,07,15,15,52,24.90
2013,07,15,15,53,25.00
2013,07,15,15,54,25.10
2013,07,15,15,55,25.20
2013,07,15,15,56,25.20
2013,07,15,15,57,25.30
2013,07,15,15,58,25.30
2013,07,15,15,59,25.50
2013,07,15,16,00,25.50
2013,07,15,16,01,25.30
2013,07,15,16,02,25.10
2013,07,15,16,03,24.80
2013,07,15,16,04,24.60
2013,07,15,16,05,24.40
2013,07,15,16,06,24.40
2013,07,15,16,07,24.40
2013,07,15,16,08,24.50
2013,07,15,16,09,24.40
2013,07,15,16,10,24.40
2013,07,15,16,11,24.30
2013,07,15,16,12,24.40
2013,07,15,16,13,24.50
2013,07,15,16,14,24.70
2013,07,15,16,15,24.90
2013,07,15,16,16,25.10
2013,07,15,16,17,25.30
2013,07,15,16,18,25.40
2013,07,15,16,19,25.50
2013,07,15,16,20,25.60
2013,07,15,16,21,25.70
2013,07,15,16,22,25.90
2013,07,15,16,23,26.10
2013,07,15,16,24,26.20
2013,07,15,16,25,26.40
2013,07,15,16,26,26.50
2013,07,15,16,27,26.70
2013,07,15,16,28,26.90
2013,07,15,16,29,27.10
2013,07,15,16,30,27.30
2013,07,15,16,31,27.20
2013,07,15,16,32,27.20
2013,07,15,16,33,27.20
2013,07,15,16,34,27.20
2013,07,15,16,35,27.30
2013,07,15,16,36,27.40
2013,07,15,16,37,27.30
2013,07,15,16,38,27.30
2013,07,15,16,39,27.30
2013,07,15,16,40,27.30
2013,07,15,16,41,27.30
2013,07,15,16,42,27.30
2013,07,15,16,43,27.30
2013,07,15,16,44,27.30
2013,07,15,16,45,27.30
2013,07,15,16,46,27.30
2013,07,15,16,47,27.30
2013,07,15,16,48,27.30
2013,07,15,16,49,27.40
2013,07,15,16,50,27.40
2013,07,15,16,51,27.30
2013,07,15,16,52,27.20
2013,07,15,16,53,27.20
2013,07,15,16,54,27.10
2013,07,15,16,55,27.10
2013,07,15,16,56,27.20
2013,07,15,16,57,27.20
2013,07,15,16,58,27.20
2013,07,15,16,59,27.10
2013,07,15,17,00,27.00
2013,07,15,17,01,27.00
2013,07,15,17,02,27.00
2013,07,15,17,03,27.00
2013,07,15,17,04,27.00
2013,07,15,17,05,27.10
2013,07,15,17,06,27.10
2013,07,15,17,07,27.10
2013,07,15,17,08,27.20
2013,07,15,17,09,27.20
2013,07,15,17,10,27.30
2013,07,15,17,11,27.20
2013,07,15,17,12,27.20
2013,07,15,17,13,27.20
2013,07,15,17,14,27.10
2013,07,15,17,15,27.10
2013,07,15,17,16,27.10
2013,07,15,17,17,27.10
2013,07,15,17,18,27.10
2013,07,15,17,19,27.10